Other Public Products
Issued by NWS Charleston, SC

Current Version | Previous Version | Graphics & Text | Print | Product List | Glossary On
Versions: 1 2 3 4 5 6 7 8 9 10 11 12 13 14 15 16 17 18 19 20 21 22 23 24 25 26 27 28 29 30 31 32 33 34 35 36 37 38 39 40 41 42 43 44 45 46 47 48 49 50
000 FPUS82 KCHS 160727 OPUCHS TEST...KCHS/KSAV Gateway Observations...TEST National Weather Service Charleston SC 200 AM EST SAT DEC 16 2017 NOTE: "fair" indicates few or no clouds below 12,000 feet with no significant weather and/or obstructions to visibility. SCZ050-WAZ558-NCZ071-TXZ119-213-PAZ071-DCZ001-FLZ074-172-MI076- NYZ176-178-MAZ016-IL014-TNZ027-NJZ106-GAZ044-MD014-160800- ...Gateway Observations for Charleston International... CITY SKY/WX TMP DP RH WIND PRES REMARKS Chas Airport CLEAR 43 30 60 NW12 30.18R Seattle CLOUDY 42 40 92 SE10 30.26S Charlotte CLEAR 28 22 78 CALM 30.16R Dallas DFW CLOUDY 39 27 62 S9 30.15F WCI 33 Dallas Love CLOUDY 44 26 49 S3 30.18F Philladelphia PTCLDY 22 17 81 W12 30.02R WCI 10 Wash National CLOUDY 27 23 85 S9 30.06R WCI 18 Baltimore MOCLDY 25 23 92 SW5 30.03S WCI 19 Miami MOCLDY 66 58 75 CALM 30.17F Detroit FLURRIES 31 23 72 SW13 29.91R WCI 21 Newark PTCLDY 22 18 85 W14 29.94R WCI 9 Laguardia PTCLDY 26 18 71 W18G26 29.92R WCI 13 J F K PTCLDY 25 19 78 W12 29.94R WCI 14 Boston Logan CLOUDY 24 16 71 W12 29.80R WCI 13 Ft. Lauderdale CLEAR 62 58 86 N5 30.16F Chicago O`Hare CLOUDY 38 21 50 SW13 29.86F WCI 30 Chicago Midway CLOUDY 38 21 50 SW14 29.89S WCI 30 Houston Bush CLOUDY 43 39 86 CALM 30.26F Houston Hobby CLOUDY 43 39 86 CALM 30.26S Nashville CLEAR 30 23 75 S3 30.22S Atlanta PTCLDY 28 24 85 W7 30.21S WCI 21 $$ GAZ044-118-TXZ119-213-NCZ071-DCZ001-MDZ014-506-PAZ021-071-NJZ106- NYZ176-178-MAZ106-OHZ011-021-055-MIZ076-KYZ091-ILZ014-INZ047- MNZ060-ONZ431-160800- ...Gateway Observations for Savannah International... CITY SKY/WX TMP DP RH WIND PRES REMARKS Savannah Arpt PTCLDY 44 27 51 NW7 30.21R Atlanta PTCLDY 28 24 85 W7 30.21S WCI 21 Charlotte CLEAR 28 22 78 CALM 30.16R Dallas DFW CLOUDY 39 27 62 S9 30.15F WCI 33 Houston Bush CLOUDY 43 39 86 CALM 30.26F Wash National CLOUDY 27 23 85 S9 30.06R WCI 18 Wash Dulles CLOUDY 25 23 92 S7 30.04R WCI 17 Baltimore MOCLDY 25 23 92 SW5 30.03S WCI 19 Philadelphia PTCLDY 22 17 81 W12 30.02R WCI 10 Newark PTCLDY 22 18 85 W14 29.94R WCI 9 Laguardia PTCLDY 26 18 71 W18G26 29.92R WCI 13 J F K PTCLDY 25 19 78 W12 29.94R WCI 14 Boston CLOUDY 24 16 71 W12 29.80R WCI 13 Pittsburg CLOUDY 30 18 60 SW14G22 29.99R WCI 19 Akron CLOUDY 28 18 66 SW13 29.96S WCI 17 Cleveland CLOUDY 31 20 63 SW18G24 29.97R WCI 19 Cincinnati CLOUDY 32 24 72 S9 30.07F WCI 24 Columbus CLOUDY 30 23 74 SW10 30.05S WCI 21 Detroit FLURRIES 31 23 72 SW13 29.91R WCI 21 Chicago O`Hare CLOUDY 38 21 50 SW13 29.86F WCI 30 Minneapolis CLOUDY 30 29 96 E7 29.67R WCI 23 Indianapolis CLOUDY 32 23 69 S8 30.02F WCI 25 Toronto Canada PTCLDY 21 12 68 SW12 29.81R WCI 9 $$

USA.gov is the U.S. government's official web portal to all federal, state and local government web resources and services.